Content
SEND FEEDBACK

Daily
Averages
Monthly
Summary
United States of America

STANLEY, WISCONSIN


Home > North America > United States > Wisconsin
Elevation: 1145 feet     Latitude: 44 58N     Longitude: 090 55W

WEATHER
 
SELECT A DAY
Number of Records: 206,042;   Date Range: 1/1/95 - 8/30/14
 
SHARE

PRINT THIS DATA

[ ← Previous Day ]
WEATHER ALMANAC - FEBRUARY 13, 2013
[ Next Day → ]
[ °C ]   °F
Weather ElementAverageHighLow
Temperature29.7 °F35.1 °F (3:56 pm)21 °F (3:56 am)
Dewpoint25.3 °F30.2 °F (8:26 pm)17.1 °F (3:56 am)
Humidity84 %93 % (8:26 pm)64 % (3:56 pm)
Barometer29.66 in29.79 in (1:56 am)29.55 in (11:07 pm)
Wind Speed5.2 mph8.1 mph (1:56 am)
Weather ElementAverage
Visibility5.8 mi
Wind DirectionSSE (159.1 °)

Weather ElementTotal
Precipitation0.40 in
Heating Degree Days37 (Base 65)
Averaged from 34 records on February 13, 2013
WEATHER CONDITIONS BREAKOUT
WIND DIRECTION BREAKOUT
WEATHER BY HOUR - FEBRUARY 13, 2013
[ °C ]   °F
Local TimeTemperatureDewpointHumidityBarometerVisibilityWind DirectionWind SpeedGust SpeedPrecipitationEventsConditions
1:56 AM24.1 °F19.0 °F81 %29.79 in10.0 miSW (220°)8.1 mphMostly Cloudy
2:56 AM21.9 °F18.0 °F85 %29.78 in10.0 miSW (230°)5.8 mphScattered Clouds
3:56 AM21.0 °F17.1 °F85 %29.77 in10.0 miSW (220°)5.8 mphMostly Cloudy
4:56 AM21.9 °F18.0 °F85 %29.76 in10.0 miSW (230°)4.6 mphOvercast
5:56 AM21.9 °F18.0 °F85 %29.76 in10.0 miWSW (240°)5.8 mphOvercast
6:56 AM21.9 °F18.0 °F85 %29.74 in10.0 miSW (220°)5.8 mphOvercast
7:56 AM21.9 °F18.0 °F85 %29.75 in9.0 miWSW (250°)5.8 mphOvercast
8:56 AM23.0 °F18.0 °F81 %29.75 in9.0 miWSW (250°)8.1 mphMostly Cloudy
9:56 AM25.0 °F19.0 °F78 %29.74 in10.0 miSW (230°)5.8 mphMostly Cloudy
10:56 AM28.0 °F21.0 °F75 %29.72 in10.0 miWSW (240°)8.1 mphOvercast
11:56 AM30.9 °F21.9 °F69 %29.71 in10.0 miWest (260°)5.8 mphOvercast
12:56 PM30.9 °F21.9 °F69 %29.70 in10.0 miSW (230°)8.1 mphOvercast
1:56 PM33.1 °F24.1 °F70 %29.69 in10.0 miWSW (250°)5.8 mph0.00 inOvercast
2:56 PM34.0 °F24.1 °F67 %29.68 in10.0 miSSW (210°)6.9 mphOvercast
3:56 PM35.1 °F24.1 °F64 %29.67 in10.0 miSSW (210°)4.6 mphOvercast
4:56 PM35.1 °F25.0 °F67 %29.66 in10.0 miSSW (210°)6.9 mphOvercast
5:56 PM34.0 °F26.1 °F73 %29.67 in10.0 miSSW (210°)4.6 mphOvercast
6:56 PM34.0 °F26.1 °F73 %29.67 in9.0 miSSW (210°)6.9 mph0.00 inSnowLight Snow
7:56 PM32.0 °F28.9 °F88 %29.66 in4.0 miSSW (200°)5.8 mph0.00 inSnowLight Snow
8:26 PM32.0 °F30.2 °F93 %29.61 in2.0 miCalm0.00 inSnowLight Snow
8:36 PM32.0 °F30.2 °F93 %29.61 in1.8 miCalm0.00 inSnowLight Snow
8:56 PM32.0 °F30.0 °F92 %29.64 in1.0 miSE (140°)3.5 mph0.01 inSnowLight Snow
9:34 PM32.0 °F30.2 °F93 %29.58 in0.8 miEast (90°)3.5 mph0.03 inSnowLight Snow
9:44 PM32.0 °F30.2 °F93 %29.58 in1.0 miEast (80°)3.5 mph0.03 inSnowLight Snow
9:53 PM32.0 °F30.2 °F93 %29.58 in1.2 miENE (70°)3.5 mph0.04 inSnowLight Snow
9:56 PM32.0 °F30.0 °F92 %29.61 in1.2 miENE (70°)3.5 mph0.04 inSnowLight Snow
10:03 PM32.0 °F30.2 °F93 %29.57 in0.8 miENE (70°)3.5 mph0.00 inSnowLight Snow
10:17 PM32.0 °F30.2 °F93 %29.57 in1.0 miEast (80°)4.6 mph0.01 inSnowLight Snow
10:42 PM32.0 °F30.2 °F93 %29.56 in0.8 miEast (90°)5.8 mph0.04 inSnowLight Snow
10:56 PM32.0 °F30.0 °F92 %29.59 in1.0 miEast (90°)4.6 mph0.05 inSnowLight Snow
11:07 PM32.0 °F30.2 °F93 %29.55 in0.8 miEast (90°)5.8 mph0.01 inSnowLight Snow
11:23 PM32.0 °F30.2 °F93 %29.55 in1.0 miEast (80°)4.6 mph0.03 inSnowLight Snow
11:35 PM32.0 °F30.2 °F93 %29.55 in0.8 miENE (70°)4.6 mph0.04 inSnowLight Snow
11:56 PM32.0 °F30.0 °F92 %29.58 in0.8 miENE (70°)5.8 mph0.07 inSnowLight Snow
Hourly data recorded from KEAU, located miles away from Stanley, Wisconsin







STORIES FROM OUR PARTNERS